This is the latest recevied weather packets stored in our database for station/object DB0MW-13. If no packets are shown the sender has not sent any weather packets the latest 10 day(s).
| Time | Temp. | Humidity | Pressure | Rain* | Wind** | Luminosity | Snow |
|---|---|---|---|---|---|---|---|
| 1777788300 | 12.78° C | 77% | 1016 hPa | 0 mm | - | - | - |
| 1777788000 | 12.78° C | 77% | 1016 hPa | 0 mm | - | - | - |
| 1777787700 | 12.22° C | 78% | 1015.8 hPa | 0 mm | - | - | - |
| 1777787400 | 12.22° C | 78% | 1015.8 hPa | 0 mm | - | - | - |
| 1777787100 | 11.67° C | 79% | 1015.9 hPa | 0 mm | - | - | - |
| 1777786800 | 11.67° C | 79% | 1015.8 hPa | 0 mm | - | - | - |
| 1777786500 | 11.67° C | 80% | 1015.8 hPa | 0 mm | - | - | - |
| 1777786200 | 11.67° C | 80% | 1015.7 hPa | 0 mm | - | - | - |
| 1777785900 | 11.67° C | 81% | 1015.8 hPa | 0 mm | - | - | - |
| 1777785600 | 11.67° C | 81% | 1015.4 hPa | 0 mm | - | - | - |
| 1777785300 | 11.11° C | 82% | 1015.5 hPa | 0 mm | - | - | - |
| 1777785000 | 11.11° C | 82% | 1015.5 hPa | 0 mm | - | - | - |
| 1777784700 | 11.11° C | 83% | 1015.5 hPa | 0 mm | - | - | - |
| 1777784400 | 11.11° C | 84% | 1015.5 hPa | 0 mm | - | - | - |
| 1777784100 | 11.11° C | 84% | 1015.5 hPa | 0 mm | - | - | - |
| 1777783800 | 11.11° C | 84% | 1015.4 hPa | 0 mm | - | - | - |
| 1777783500 | 11.11° C | 83% | 1015.7 hPa | 0 mm | - | - | - |
| 1777783200 | 11.11° C | 83% | 1015.3 hPa | 0 mm | - | - | - |
| 1777782901 | 11.11° C | 82% | 1015.4 hPa | 0 mm | - | - | - |
| 1777782601 | 10.56° C | 83% | 1015.5 hPa | 0 mm | - | - | - |
| 1777782301 | 10.56° C | 83% | 1015.6 hPa | 0 mm | - | - | - |
| 1777782001 | 10.56° C | 83% | 1015.7 hPa | 0 mm | - | - | - |
| 1777781701 | 10.56° C | 84% | 1015.6 hPa | 0 mm | - | - | - |
| 1777781401 | 10.56° C | 85% | 1015.5 hPa | 0 mm | - | - | - |
| 1777781101 | 11.11° C | 85% | 1015.5 hPa | 0 mm | - | - | - |
* Rain latest hour (hover to see other rain measurements)
** Current wind speed in m/s (hover to see current wind gust speed)